Location: Melbourne
(37.8170°S, 144.9670°E)
Time: 13:15:05
(UTC+11:00)

ADEOS Rocket - Visible Passes

Search period start: 20 December 2014 00:00
Search period end: 30 December 2014 00:00
Orbit: 858 x 1308 km, 98.7° (Epoch: 18 December)

Date Brightness Start Highest point End Pass type
(mag) Time Alt. Az. Time Alt. Az. Time Alt. Az.
20 Dec 3.7 22:32:49 10° S 22:40:29 73° WSW 22:47:28 10° NNW visible
21 Dec 5.9 00:20:53 10° SSW 00:24:29 14° SW 00:27:59 10° W visible
21 Dec 3.6 21:44:12 10° SSE 21:51:37 53° E 21:58:21 10° N visible
21 Dec 5.1 23:30:12 10° S 23:36:36 30° WSW 23:42:35 10° WNW visible
22 Dec 3.9 22:40:46 10° S 22:48:17 64° WSW 22:55:07 10° NNW visible
23 Dec 6.0 00:29:39 10° SSW 00:32:07 12° SW 00:34:32 10° WSW visible
23 Dec 3.5 21:52:01 10° SSE 21:59:31 61° E 22:06:15 10° N visible
23 Dec 5.3 23:38:20 10° S 23:44:18 26° WSW 23:49:54 10° WNW visible
24 Dec 4.4 21:04:12 10° SE 21:10:14 26° E 21:15:48 10° NE visible
24 Dec 4.1 22:48:44 10° S 22:56:04 55° WSW 23:02:43 10° NW visible
25 Dec 3.4 21:59:52 10° SSE 22:07:22 70° ENE 22:14:05 10° N visible
25 Dec 5.5 23:46:31 10° SSW 23:51:59 23° WSW 23:57:08 10° WNW visible
26 Dec 4.2 21:11:50 10° SSE 21:18:10 30° E 21:23:57 10° NNE visible
26 Dec 4.3 22:56:44 10° S 23:03:50 48° WSW 23:10:15 10° NW visible
27 Dec 3.3 22:07:45 10° SSE 22:15:13 80° ENE 22:21:52 10° N visible
27 Dec 5.7 23:54:46 10° SSW 23:59:39 19° WSW 00:04:16 10° W visible
28 Dec 4.0 21:19:32 10° SSE 21:26:05 35° E 21:32:01 10° NNE visible
28 Dec 4.5 23:04:46 10° S 23:11:34 41° WSW 23:17:45 10° NW visible
29 Dec 3.3 22:15:38 10° SSE 22:23:02 89° WSW 22:29:36 10° NNW visible
